This is the latest recevied weather packets stored in our database for station/object DH9NFM-12. If no packets are shown the sender has not sent any weather packets the latest 10 day(s).
| Time | Temp. | Humidity | Pressure | Rain* | Wind** | Luminosity | Snow |
|---|---|---|---|---|---|---|---|
| 1788613506 | 19.44° C | 63% | 1020.3 hPa | 0 mm | - | - | - |
| 1788612882 | 18.33° C | 68% | 1020.2 hPa | 0 mm | - | - | - |
| 1788612257 | 18.33° C | 72% | 1020.1 hPa | 0 mm | - | - | - |
| 1788611632 | 18.89° C | 70% | 1020 hPa | 0 mm | - | - | - |
| 1788611008 | 20° C | 71% | 1019.9 hPa | 0 mm | - | - | - |
| 1788610383 | 19.44° C | 67% | 1019.9 hPa | 0 mm | - | - | - |
| 1788609758 | 19.44° C | 78% | 1020.1 hPa | 0 mm | - | - | - |
| 1788609134 | 17.22° C | 79% | 1020 hPa | 0 mm | - | - | - |
| 1788608509 | 17.22° C | 80% | 1020.1 hPa | 0 mm | - | - | - |
| 1788607885 | 17.78° C | 77% | 1020.1 hPa | 0 mm | - | - | - |
| 1788607260 | 18.89° C | 81% | 1020.1 hPa | 0 mm | - | - | - |
| 1788606635 | 18.89° C | 83% | 1020.1 hPa | 0 mm | - | - | - |
| 1788606011 | 18.89° C | 88% | 1020.2 hPa | 0 mm | - | - | - |
| 1788605386 | 17.78° C | 92% | 1020.2 hPa | 0 mm | - | - | - |
| 1788604761 | 17.78° C | 90% | 1020.3 hPa | 0 mm | - | - | - |
| 1788604137 | 17.22° C | 91% | 1020.2 hPa | 0 mm | - | - | - |
| 1788603512 | 17.78° C | 97% | 1020.3 hPa | 0 mm | - | - | - |
| 1788602887 | 16.67° C | 10% | - | 0 mm | - | - | - |
| 1788602262 | 16.11° C | 10% | - | 0 mm | - | - | - |
| 1788601638 | 17.78° C | 10% | - | 0 mm | - | - | - |
| 1788601013 | 16.67° C | 10% | - | 0 mm | - | - | - |
| 1788600388 | 17.78° C | 10% | - | 0 mm | - | - | - |
| 1788599763 | 15.56° C | 10% | - | 0 mm | - | - | - |
| 1788599138 | 16.11° C | 10% | - | 0 mm | - | - | - |
| 1788598514 | 15° C | 10% | - | 0 mm | - | - | - |
* Rain latest hour (hover to see other rain measurements)
** Current wind speed in m/s (hover to see current wind gust speed)